DMSP 5D-2 F13 DEB, 40449

Orbit data source: Space-Track

DMSP 5D-2 F13 DEB, 40449 is space debris in SSO originally from a launch on Fri, 24 Mar 1995 UTC launched from the Air Force Western Test Range (AFWTR). Debris objects in space refer to the collection of defunct objects orbiting the Earth. Examples of debris include non-operational satellites, rocket bodies, and fragments generated from explosions, collisions, or faulty payload assembly.

Loading next visibility...
Identifier
40449, 1995-015BB
Orbit
SSO
Country
Flag of USUS
Related business
Manufacturer
Unknown
Mission
Spacecraft
Bus & Motor
Unknown
Mass
Unknown
Launch date (UTC)
1995-03-24 (31 years ago)
Launch vehicle
Unknown
Launch site
Air Force Western Test Range (AFWTR)
Object type
Payload
Rocket body
Debris
Shape & HBR
Unknown shape, 0.1 m
Radar Cross Section
Small (<0.1 m²)

Expand to show TLE details & history
Last TLE update: 3 days ago

TLE from 3 days ago
0 DMSP 5D-2 F13 DEB
1 40449U 95015BB  25298.73921369  .00006470  00000-0  24764-2 0  9999
2 40449  98.9288 303.3795 0022750 222.3096 137.6332 14.30828625550034
Epoch: 2025-10-25T17:44Z
TLE epoch observation values (Epoch: 2025-10-25T17:44:28.062Z)
Latitude
Longitude
2.89713°
Altitude
803.951 km
Speed
7.445 km/s
True Right ascension
20h 13m 31s
True Declination
0° 00' 00"
Sunlit
Object was in daylight at epoch
Visualization orbit readout
Latitude
Unknown
Longitude
Unknown
Altitude
Unknown
Speed
Unknown
Apparent Right ascension
Unknown
Apparent Declination
Unknown
Sunlit
N/A
Visualization observer readout
Local Sidereal Time
00:08:06
Azimuth
Unknown
Elevation
Unknown
Doppler factor
Unknown
Orbital elements
Apogee altitude
802.416 km
Perigee altitude
769.819 km
Semi-major axis
7,164.254 km
Eccentricity
0.00228
Inclination
98.9288°
RAAN
303.3795°
Arg. of periapsis
222.3096°
True anomaly
137.80851°
Mean anomaly
137.6332°
Eccentric anomaly
137.72089°
Mean motion
3.57921 °/min
Orbital period
100.58 mins
BSTAR
0.0024764

Documentation

Showing up to 5 results
|